STARLINK-35169, 65465

Orbit data source: Space-Track

STARLINK-35169, 65465 is a payload satellite owned by SpaceX/Seattle (US) in LEO that was launched on Wed, 03 Sep 2025 UTC via an FALCON 9 launch vehicle from the Air Force Eastern Test Range (AFETR). Payload-class satellites include a variety of spacecraft equipped with specific instruments for various scientific and technological missions. These include communications satellites like Starlink; space stations such as the ISS; scientific satellites like the Hubble; Earth observation satellites from companies like Planet Labs, Umbra, and HawkEye 360; GPS; miniature CubeSats for education and research; and military/defense satellites.

Loading next visibility...
Identifier
65465, 2025-195H
Orbit
LEO
Country
Flag of USUS
Related business
Manufacturer
SpaceX/Seattle
Mission
Operational Commercial Communications
Bus & Motor
STARLINK V2MO, Unknown motor
Mass
575 kg wet, ~530 kg dry
Launch date (UTC)
2025-09-03 (10 months ago)
Launch vehicle
FALCON 9
Launch site
Air Force Eastern Test Range (AFETR)
Object type
Payload
Rocket body
Debris
Shape & HBR
Box + 2 Pan, 17.7 m
Radar Cross Section
36.964 m², Large (>1 m²)

Expand to show TLE details & history
Last TLE update: 2 days ago

TLE from 2 days ago
0 STARLINK-35169
1 65465U 25195H   26170.32540777  .00017709  00000-0  53394-3 0  9990
2 65465  53.1597 145.4555 0001413  80.6543 279.4620 15.34404510 45569
Epoch: 2026-06-19T07:48Z
TLE epoch observation values (Epoch: 2026-06-19T07:48:35.231Z)
Latitude
0.00004°
Longitude
120.75273°
Altitude
463.432 km
Speed
7.636 km/s
True Right ascension
09h 41m 49s
True Declination
0° 00' 00"
Sunlit
Object was in daylight at epoch
Visualization orbit readout
Latitude
Unknown
Longitude
Unknown
Altitude
Unknown
Speed
Unknown
Apparent Right ascension
Unknown
Apparent Declination
Unknown
Sunlit
N/A
Visualization observer readout
Local Sidereal Time
10:20:27
Azimuth
Unknown
Elevation
Unknown
Doppler factor
Unknown
Orbital elements
Apogee altitude
463.913 km
Perigee altitude
461.98 km
Semi-major axis
6,841.084 km
Eccentricity
0.00014
Inclination
53.1597°
RAAN
145.4555°
Arg. of periapsis
80.6543°
True anomaly
279.44603°
Mean anomaly
279.462°
Eccentric anomaly
279.45401°
Mean motion
3.8358 °/min
Orbital period
93.85 mins
BSTAR
0.00053394
Loading maneuver chart data...
Computing Atmospheric mass density...
Loading historical data...
Loading historical data...
Loading historical data...
Loading historical data...
Loading historical data...
Loading historical data...
Loading historical data...

Documentation

Showing up to 5 results
|